Location: Newark
(45.9167°N, 5.5000°E)
Time: 11:09:51
(UTC+00:00)

N. Korean satellite - Pass Details

Date: 25 January 2020
Orbit: 456 x 505 km, 97.2° (Epoch: 23 February)

Event Time Altitude Azimuth Distance (km) Brightness Sun altitude
Rises 05:42:18 0° 9° (N) 2,535 10.2 -14.9°
Reaches altitude 10° 05:44:22 10° 7° (N) 1,660 9.2 -14.6°
Maximum altitude 05:47:54 66° 285° (WNW) 533 6.5 -14.0°
Drops below altitude 10° 05:51:28 10° 203° (SSW) 1,674 9.2 -13.4°
Sets 05:53:33 0° 200° (SSW) 2,559 10.2 -13.0°
